Weather History for Garden City, KS

Change the Weather History Date:

Saturday, April 27, 2013

  Actual Average Record
Temperature  
Mean Temperature 57 °F 57 °F  
Max Temperature 76 °F 71 °F 94 °F (1981)
Min Temperature 37 °F 43 °F 27 °F (1984)
Degree Days  
Heating Degree Days 8 9  
Month to date heating degree days 503 350  
Since 1 July heating degree days 5053 5038  
Cooling Degree Days 0 1  
Month to date cooling degree days 0 8  
Year to date cooling degree days 0 8  
Growing Degree Days 6 (Base 50)    
Moisture  
Dew Point 43 °F    
Average Humidity 61    
Maximum Humidity 96    
Minimum Humidity 25    
Precipitation  
Precipitation T in 0.06 in 0.47 in (1986)
Month to date precipitation 0.46 1.51  
Year to date precipitation 0.88 3.85  
Sea Level Pressure  
Sea Level Pressure 30.09 in    
Wind  
Wind Speed 6 mph (SW)    
Max Wind Speed 17 mph    
Max Gust Speed 24 mph    
Visibility 6 miles    
Events Fog , Rain    
T = Trace of Precipitation, MM = Missing Value Source: NWS Daily Summary

Daily Weather History Graph

Daily Weather History Graph

Search for Another Location

Airport:

Trip Planner

Search our weather history database for the weather conditions in past years. The results will help you decide how hot, cold, wet, or windy it might be!

Date:

Astronomy

Apr. 27, 2013 Rise Set
Actual Time 6:51 AM CDT 8:30 PM CDT
Civil Twilight 6:23 AM CDT 8:58 PM CDT
Nautical Twilight 5:49 AM CDT 9:32 PM CDT
Astronomical Twilight 5:13 AM CDT 10:08 PM CDT
Moon 10:59 PM CDT (4/27) 8:13 AM CDT (4/27)
Length of Visible Light 14h 34m
Length of Day
13h 38m
Waning Gibbous, 95% of the Moon is Illuminated
Apr 27
Waning Gibbous
May 2
Last Quarter
May 9
New
May 17
First Quarter
May 24
Full

Hourly Weather History & Observations

Time (CDT) Temp. Windchill Dew Point Humidity Pressure Visibility Wind Dir Wind Speed Gust Speed Precip Events Conditions
12:54 AM 46.9 °F - - N/A% 30.16 in 0.2 mi Calm Calm - 0.00 in Rain Light Rain
1:54 AM 45.0 °F - - N/A% 30.17 in 0.2 mi Calm Calm - 0.00 in Fog Fog
2:54 AM 43.0 °F - - N/A% 30.16 in 0.2 mi Calm Calm - N/A Fog Fog
3:54 AM 41.0 °F - - N/A% 30.15 in 0.2 mi Calm Calm - N/A Fog Fog
4:21 AM 39.2 °F - - N/A% 30.14 in 0.5 mi Calm Calm - N/A Fog Fog
4:30 AM 39.2 °F - - N/A% 30.15 in 0.2 mi Calm Calm - N/A Fog Fog
4:32 AM 39.2 °F - - N/A% 30.15 in 0.5 mi Calm Calm - N/A Fog Fog
4:54 AM 37.9 °F - - N/A% 30.15 in 0.2 mi Calm Calm - N/A Fog Fog
5:07 AM 37.4 °F - - N/A% 30.15 in 0.5 mi Calm Calm - N/A Fog Fog
5:17 AM 37.4 °F - - N/A% 30.15 in 0.2 mi Calm Calm - N/A Fog Fog
5:43 AM 37.4 °F 33.8 °F - N/A% 30.15 in 1.0 mi WNW 4.6 mph - N/A   Mist
5:46 AM 37.4 °F 34.9 °F - N/A% 30.15 in 2.0 mi WNW 3.5 mph - N/A   Partly Cloudy
5:54 AM 37.9 °F - - N/A% 30.15 in 3.0 mi Calm Calm - N/A   Clear
6:18 AM 37.4 °F - - N/A% 30.15 in 2.5 mi Calm Calm - N/A   Clear
6:40 AM 37.4 °F 33.8 °F - N/A% 30.15 in 4.0 mi West 4.6 mph - N/A   Haze
6:54 AM 37.9 °F 34.4 °F - N/A% 30.16 in 4.0 mi West 4.6 mph - N/A   Haze
7:54 AM 40.5 °F 37.3 °F 39.2 °F 95% 30.16 in 9.0 mi West 4.6 mph - N/A   Clear
8:54 AM 49.1 °F - 46.4 °F 90% 30.15 in 10.0 mi West 3.5 mph - N/A   Clear
9:54 AM 55.9 °F - 48.0 °F 75% 30.13 in 10.0 mi WNW 4.6 mph - N/A   Clear
10:54 AM 62.1 °F - 46.0 °F 56% 30.12 in 10.0 mi Calm Calm - N/A   Clear
11:54 AM 64.9 °F - 42.1 °F 43% 30.12 in 10.0 mi SSW 3.5 mph - N/A   Clear
12:54 PM 68.0 °F - 42.1 °F 39% 30.09 in 10.0 mi SW 6.9 mph - N/A   Clear
1:54 PM 70.0 °F - 44.1 °F 39% 30.06 in 10.0 mi SSW 8.1 mph - N/A   Clear
2:54 PM 72.0 °F - 42.1 °F 34% 30.04 in 10.0 mi Calm Calm - N/A   Clear
3:54 PM 73.0 °F - 39.9 °F 30% 30.01 in 10.0 mi South 4.6 mph 16.1 mph N/A   Clear
4:54 PM 73.9 °F - 37.9 °F 27% 29.98 in 10.0 mi SSW 8.1 mph - N/A   Clear
5:54 PM 75.0 °F - 37.9 °F 26% 29.95 in 10.0 mi South 12.7 mph 17.3 mph N/A   Clear
6:54 PM 73.9 °F - 39.0 °F 28% 29.94 in 10.0 mi South 16.1 mph - N/A   Clear
7:54 PM 69.1 °F - 43.0 °F 39% 29.93 in 10.0 mi South 16.1 mph - N/A   Clear
8:54 PM 62.1 °F - 44.1 °F 52% 29.93 in 10.0 mi SSE 10.4 mph - N/A   Clear
9:54 PM 57.9 °F - 44.1 °F 60% 29.94 in 10.0 mi SSE 11.5 mph - N/A   Clear
10:54 PM 55.0 °F - 46.0 °F 72% 29.94 in 10.0 mi SSE 12.7 mph - N/A   Clear
11:54 PM 53.1 °F - 46.0 °F 77% 29.95 in 10.0 mi SSE 8.1 mph - N/A   Clear